XE2WR-3 Weather Reports


time (UTC)temp
C
wind
direction
speed
KPH
gust
KPH
rain 1hr
cm
rain 24hr
cm
rain mn
cm
humidity
%
barometer
mb
20260502163049 16 88 1.6 6.4 0.00 0.20 0.10 82 1020.3
20260502161539 16 63 3.2 6.4 0.00 0.20 0.10 82 1020.3
20260502151532 15 72 3.2 8.0 0.00 0.20 0.10 82 1019.7
20260502123012 15 61 3.2 6.4 0.00 0.30 0.10 74 1017.9
20260502121512 15 56 3.2 9.7 0.00 0.30 0.10 75 1017.7
20260502114511 15 53 0.0 3.2 0.00 0.36 0.10 70 1017.1
20260502113003 15 53 0.0 1.6 0.00 0.36 0.10 69 1016.8
20260502111501 15 54 0.0 3.2 0.00 0.36 0.10 72 1016.7
20260502110103 15 53 0.0 6.4 0.00 0.36 0.10 75 1016.6
20260502104557 15 37 4.8 9.7 0.00 0.36 0.10 76 1016.3
20260502103101 16 65 3.2 6.4 0.00 0.36 0.10 65 1016.2
20260502101624 16 72 1.6 4.8 0.00 0.36 0.10 65 1016.0
20260502100117 16 72 3.2 6.4 0.00 0.36 0.10 62 1016.0
20260502090150 16 81 1.6 4.8 0.00 0.36 0.10 65 1015.7
20260502070047 16 81 0.0 4.8 0.05 0.30 0.05 74 1016.4
20260502064530 17 101 3.2 11.3 0.03 0.28 0.03 81 1016.1
20260502063031 17 103 4.8 8.0 0.00 0.25 0.00 82 1016.0
20260502061526 17 153 3.2 9.7 0.00 0.25 0.00 82 1015.8
20260502060024 18 82 8.0 12.9 0.00 0.25 0.00 82 1015.7
20260502054523 17 207 3.2 8.0 0.00 0.25 0.25 82 1015.6
20260502053022 17 231 4.8 9.7 0.03 0.25 0.25 81 1015.5
20260502051525 17 221 3.2 12.9 0.05 0.25 0.25 82 1015.3
20260502050018 17 82 1.6 14.5 0.05 0.25 0.25 82 1015.3
20260502044518 17 151 8.0 16.1 0.05 0.23 0.23 81 1015.1
20260502043015 17 77 8.0 14.5 0.05 0.23 0.23 82 1014.9
20260502041511 17 102 6.4 12.9 0.05 0.23 0.23 80 1014.5
20260502040009 17 197 8.0 16.1 0.05 0.23 0.23 78 1014.3
20260502034505 17 98 1.6 11.3 0.03 0.18 0.18 79 1014.1
20260502033002 18 98 4.8 11.3 0.00 0.15 0.15 81 1013.8
20260502031602 18 75 1.6 11.3 0.00 0.15 0.15 81 1013.3
20260502030100 18 77 0.0 9.7 0.00 0.15 0.15 82 1012.9
20260502024552 18 169 0.0 14.5 0.00 0.15 0.15 82 1012.7
20260502023107 18 145 3.2 8.0 0.00 0.15 0.15 82 1012.4
20260502021549 18 59 3.2 8.0 0.00 0.15 0.15 82 1012.1
20260502020049 18 110 1.6 12.9 0.00 0.15 0.15 82 1011.6
20260502014542 18 112 6.4 12.9 0.00 0.15 0.15 82 1011.2
20260502013040 18 66 3.2 12.9 0.00 0.15 0.15 82 1011.0
20260502011541 19 105 3.2 16.1 0.00 0.15 0.15 82 1010.5
20260502010032 19 63 8.0 17.7 0.00 0.15 0.15 82 1010.2
20260502004529 20 32 1.6 12.9 0.00 0.15 0.15 81 1009.9
20260502003028 20 41 11.3 19.3 0.00 0.15 0.15 81 1009.6
20260502001523 20 60 8.0 19.3 0.00 0.15 0.15 80 1009.4
20260502000021 21 15 9.7 22.5 0.00 0.15 0.15 79 1009.1
20260501234521 21 25 6.4 17.7 0.00 0.15 0.15 77 1008.7
20260501233020 22 19 8.0 22.5 0.00 0.15 0.15 77 1008.5
20260501231522 23 20 11.3 17.7 0.00 0.15 0.15 75 1008.0
20260501230018 23 57 11.3 22.5 0.00 0.15 0.15 74 1007.8
20260501224517 24 25 4.8 16.1 0.00 0.15 0.15 72 1007.3
20260501223020 25 56 3.2 14.5 0.00 0.15 0.15 72 1007.0
20260501221518 25 107 4.8 12.9 0.00 0.15 0.15 72 1006.8
20260501220020 25 115 6.4 14.5 0.00 0.15 0.15 72 1006.6
20260501214515 25 101 6.4 12.9 0.00 0.15 0.15 72 1006.5
20260501213014 25 58 9.7 16.1 0.00 0.15 0.15 71 1006.5
20260501211514 25 58 4.8 12.9 0.00 0.15 0.15 71 1006.5
20260501210015 25 65 8.0 12.9 0.00 0.15 0.15 71 1006.4
20260501204511 26 107 8.0 14.5 0.00 0.15 0.15 70 1006.4
20260501203028 26 146 6.4 11.3 0.00 0.15 0.15 70 1006.5
20260501201509 26 60 4.8 17.7 0.00 0.15 0.15 71 1006.5
20260501200010 26 104 6.4 14.5 0.00 0.15 0.15 72 1006.9
20260501194502 25 177 3.2 8.0 0.00 0.15 0.15 74 1007.1
20260501193101 24 142 1.6 8.0 0.00 0.15 0.15 77 1007.4
20260501191600 23 207 3.2 8.0 0.00 0.15 0.15 78 1007.6
20260501190100 23 214 3.2 9.7 0.00 0.15 0.15 79 1007.7
20260501184609 23 79 1.6 6.4 0.00 0.15 0.15 80 1008.0
20260501183058 22 123 4.8 11.3 0.00 0.15 0.15 81 1008.1
20260501181553 23 217 1.6 6.4 0.00 0.15 0.15 82 1008.5
20260501180051 22 214 3.2 6.4 0.00 0.15 0.15 82 1008.7
20260501174553 22 132 1.6 6.4 0.00 0.15 0.15 82 1008.5
20260501173109 22 163 0.0 3.2 0.00 0.15 0.15 82 1008.9
20260501171549 22 163 0.0 3.2 0.00 0.15 0.15 82 1009.0